Regional Weather Roundup
Issued by NWS

Home | Current Version | Previous Version | Graphics & Text | Print | Product List | Glossary On
Versions: 1 2 3 4 5 6 7 8 9 10 11 12 13 14 15 16 17 18 19 20 21 22 23 24 25 26 27 28 29 30 31 32 33 34 35 36 37 38 39 40 41 42 43 44 45 46 47 48 49 50
000
ASUS43 KMKX 231320
RWRWI

WISCONSIN REGIONAL WEATHER ROUNDUP
NATIONAL WEATHER SERVICE MILWAUKEE/SULLIVAN WI
700 AM CST TUE JAN 23 2018

NOTE: "FAIR" INDICATES FEW OR NO CLOUDS BELOW 12,000 FEET WITH NO
SIGNIFICANT WEATHER AND/OR OBSTRUCTIONS TO VISIBILITY.

WIZ001-002-006>008-014>016-023>028-231400-
NORTHWEST WISCONSIN

CITY           SKY/WX    TMP DP  RH WIND       PRES   REMARKS
SUPERIOR ARPT  CLOUDY    11   5  74 N9        30.01R WCI  -1
ASHLAND        CLOUDY    18  15  88 N10       29.95R WCI   6
HAYWARD        CLOUDY    19  15  84 N12       29.90R WCI   7
SIREN          CLOUDY    15   9  76 N8        29.97R WCI   5
CUMBERLAND     CLOUDY    18  12  79 N14G21    29.89R WCI   4
RICE LAKE      CLOUDY    19  15  88 NW13      29.91R WCI   5
CHETEK         CLOUDY    19  16  87 N9G18     29.89R WCI   8
LADYSMITH      CLOUDY    20  18  90 N17G23    29.86R WCI   5
EAU CLAIRE     CLOUDY    21  18  88 N10G22    29.87R WCI  10
MENOMONIE      CLOUDY    22  17  82 NW9       29.90R WCI  11
NEW RICHMOND   CLOUDY    17  12  81 NW14      29.94R WCI   3
OSCEOLA        CLOUDY    18  13  81 N10       29.99R WCI   6
$$

WIZ003>005-009-010-017-018-231400-
NORTH CENTRAL WISCONSIN

CITY           SKY/WX    TMP DP  RH WIND       PRES   REMARKS
MANITOWISH WTR LGT SNOW  16  16 100 N12G23    29.80R WCI   3
ARBOR VITAE    CLOUDY    19  17  92 N21G26    29.77R FOG     WCI   3
WOODRUFF       CLOUDY    19  17  92 N21G26    29.77R FOG     WCI   3
RHINELANDER    MIX PCPN  19  16  88 N13G24    29.74R WCI   6
EAGLE RIVER    LGT SNOW  18  17  95 N18       29.75R WCI   2
LAND O LAKES   CLOUDY    18  17  94 N16G24    29.77R FOG     WCI   3
PHILLIPS       CLOUDY    17  15  95 N12G22    29.81R WCI   4
TOMAHAWK       CLOUDY    18  15  88 N12G18    29.77R WCI   5
MEDFORD        CLOUDY    19  16  88 N16       29.76R WCI   5
MERRILL        CLOUDY    20  16  85 N15G23    29.76R WCI   6
$$

WIZ029-030-035-036-043>047-231400-
CENTRAL WISCONSIN

CITY           SKY/WX    TMP DP  RH WIND       PRES   REMARKS
WAUSAU         CLOUDY    21  16  81 NW15G22   29.71R WCI   8
MOSINEE        LGT SNOW  21  19  93 NW17G23   29.73R WCI   7
MARSHFIELD     CLOUDY    21  17  84 N13G25    29.75R WCI   9
STEVENS POINT  MIX PCPN  21  20  95 NW9       29.73R WCI  11
WAUPACA        CLOUDY    27  21  79 NW10      29.71R HAZE    WCI  17
WAUTOMA        LGT SNOW  25  21  86 NW12      29.74R FOG     WCI  14
WISC RAPIDS    NOT AVBL
CAMP DOUGLAS   LGT SNOW  25  23  93 NW12      29.77R FOG     WCI  14
$$

WIZ011>013-019>022-031-037>040-048>050-231400-
NORTHEAST WISCONSIN

CITY           SKY/WX    TMP DP  RH WIND       PRES   REMARKS
ANTIGO         CLOUDY    20  17  89 N18G25    29.69R WCI   5
SHAWANO        CLOUDY    27  20  76 N6G16     29.70R WCI  20
OCONTO         CLOUDY    25  21  84 N10       29.67R WCI  15
STURGEON BAY   FLURRIES  24  21  88 N28G36    29.63R WCI   7
GREEN BAY      LGT SNOW  26  22  84 N14G22    29.67R FOG     WCI  14
MANITOWOC      LGT SNOW  26  23  88 N20G29    29.63R FOG     WCI  12
APPLETON       LGT SNOW  25  21  86 NW13G21   29.66R WCI  13
CLINTONVILLE   FLURRIES  27  19  74 N9G17     29.70R WCI  17
OSHKOSH        CLOUDY    26  22  84 N17G25    29.68R WCI  13
$$

WIZ032>034-041-042-053>061-231400-
SOUTHWEST WISCONSIN

CITY           SKY/WX    TMP DP  RH WIND       PRES   REMARKS
LA CROSSE      CLOUDY    28  22  78 NW20      29.83R WCI  15
SPARTA         FLURRIES  24  22  91 NW10G21   29.82R WCI  13
VIROQUA        CLOUDY    24  24  99 NW18G24   29.78R WCI  11
BOSCOBEL       CLOUDY    28  21  75 N8        29.81R WCI  20
PRAIRIE DU CHI FLURRIES  28  22  77 NW12      29.82R WCI  18
PLATTEVILLE    CLOUDY    28  26  91 NW20G25   29.75R WCI  14
$$

WIZ056-057-062-063-064-067-068-231400-
SOUTH CENTRAL WISCONSIN

CITY           SKY/WX    TMP DP  RH WIND       PRES   REMARKS
REEDSBURG      CLOUDY    25  22  90 NW12      29.75R WCI  14
BARABOO/DELLS  CLOUDY    25  20  83 N12G18    29.74R HAZE    WCI  14
LONE ROCK      CLOUDY    28  22  78 NW14G21   29.78R WCI  17
MINERAL POINT  FAIR      28  27  93 NW15G23   29.74R WCI  17
MADISON        FLURRIES  26  21  81 N15G28    29.72R WCI  14
MIDDLETON      CLOUDY    29  23  81 NW20G25   29.72R WCI  16
WATERTOWN      CLOUDY    27  25  91 NW14G23   29.68R WCI  16
MONROE         CLOUDY    28  25  86 NW14G22   29.70R WCI  17
JANESVILLE     CLOUDY    30  30 100 NW17G23   29.69R WCI  18
$$

WIZ051-052-058>065-066-070>072-231400-
SOUTHEAST WISCONSIN

CITY           SKY/WX    TMP DP  RH WIND       PRES   REMARKS
MILWAUKEE      LGT SNOW  30  28  92 NW12      29.64R FOG     WCI  20
WAUKESHA       CLOUDY    27  25  93 NW10      29.65R WCI  17
MILWAUKEE/TIMM LGT SNOW  28  27  93 NW13      29.65R WCI  18
RACINE         LGT SNOW  30  28  92 NW10      29.66R FOG     WCI  21
BURLINGTON     CLOUDY    29  25  84 NW10      29.66R WCI  20
KENOSHA        LGT SNOW  30  27  88 NW9       29.64R FOG     WCI  22
FOND DU LAC    CLOUDY    28  22  78 NW14G25   29.67R WCI  17
SHEBOYGAN      MIX PCPN  27  24  89 N17G31    29.63R WCI  14
WEST BEND      FLURRIES  28  27  93 NW17G23   29.64R WCI  16
JUNEAU         CLOUDY    26  22  86 NW15      29.69R WCI  14
$$

LSZ147-162-231400-
LAKE SUPERIOR

STATION/POSITION TIME  TEMP    WIND        PRES    WAVE
                       AIR SEA DIR/SP/G            HT/PER
                 (UTC) (F)     (DEG/KT/KT) (MB)    (FT/S)
DEVILS ISLAND    1300   18     360/ 17/ 20 1015.9R
SAXON HARBOR     1230   22      20/ 15/ 21 1013.2R
$$

LMZ867-665-643>646-231400-
LAKE MICHIGAN

STATION/POSITION TIME  TEMP    WIND        PRES    WAVE
                       AIR SEA DIR/SP/G            HT/PER
                 (UTC) (F)     (DEG/KT/KT) (MB)    (FT/S)
NORTHPORT PIER   1240   25     350/  9/ 13 1003.4R
KEWAUNEE LAKESHO 1254   26     340/ 15/ 22 1002.6R
SHEBOYGAN LAKESH 1300   28     330/ 19/ 23 1004.0R
PORT WASHINGTON  1230   29     330/  6/  9 1004.4R
MILWAUKEE LAKESH 1300   28     320/ 11/ 14   N/A
KENOSHA   LAKESH 1300   29     310/ 10/ 16 1004.4
$$

TC  - TEMPERATURE IN CELSIUS
VSB - VISIBILITY IN STATUTE MILES
WCI - WIND CHILL INDEX
HX  - HEAT INDEX





USA.gov is the U.S. government's official web portal to all federal, state and local government web resources and services.